Regional Weather Roundup
Issued by NWS

Home | Current Version | Previous Version | Graphics & Text | Print | Product List | Glossary On
Versions: 1 2 3 4 5 6 7 8 9 10 11 12 13 14 15 16 17 18 19 20 21 22 23 24 25 26 27 28 29 30 31 32 33 34 35 36 37 38 39 40 41 42 43 44 45 46 47 48 49 50
000
ASUS43 KLSX 280707
RWRMO

WEATHER SUMMARY FOR MISSOURI
NATIONAL WEATHER SERVICE SPRINGFIELD MO
200 AM CDT TUE JUL 28 2015

NOTE: "FAIR" INDICATES FEW OR NO CLOUDS BELOW 12,000 FEET WITH NO
       SIGNIFICANT WEATHER AND/OR OBSTRUCTIONS TO VISIBILITY.
       CURRENT SKY AND/OR WEATHER CONDITIONS ARE NOT AVAILABLE FOR
       CHILLICOTHE AND FARMINGTON.

MOZ001>031-035>038-043-044-053-054-280800-
...NORTHERN AND WESTERN MISSOURI...

CITY           SKY/WX    TMP DP  RH WIND       PRES   REMARKS
KANSAS CTY INT CLEAR     77  73  87 SE9       29.89F
KANSAS C DTWN  CLEAR     80  75  84 E7        29.88F
LEE`S SUMMIT   CLEAR     80  75  84 SE6       29.91F
ST JOSEPH      CLEAR     76  72  87 S5        29.88S
CHILLICOTHE      N/A     76  70  82 S6        29.92F
KIRKSVILLE     PTCLDY    72  69  90 S6        29.94F

$$
MOZ066>068-077>081-088>096-101>105-280800-
...SOUTHWEST MISSOURI...

CITY           SKY/WX    TMP DP  RH WIND       PRES   REMARKS
SPRINGFIELD    CLEAR     80  75  84 SE9       29.96S
JOPLIN         CLEAR     82  74  76 S10       29.92F

$$
MOZ032>034-039>042-045>050-055>058-069>072-280800-
...CENTRAL MISSOURI...

CITY           SKY/WX    TMP DP  RH WIND       PRES   REMARKS
COLUMBIA       CLEAR     74  71  91 SE5       29.94F
JEFFERSON CITY PTCLDY    75  71  87 SE3       29.92F
ROLLA          CLOUDY    75  72  90 SE6       29.95F
SEDALIA        CLEAR     78  71  79 SE7       29.93F
WHITEMAN AFB   CLEAR     78  74  87 SE6       29.91S
WARRENSBURG    CLEAR     77  72  83 CALM      29.91S
OSAGE BEACH    PTCLDY    79  72  78 SE3       29.94F

$$
MOZ051-052-059>065-280800-
...EAST CENTRAL MISSOURI...

CITY           SKY/WX    TMP DP  RH WIND       PRES   REMARKS
ST LOUIS INTL  MOCLDY    78  70  76 CALM      29.95F
SPIRIT OF STL  MOCLDY    75  73  93 CALM      29.93F
ST CHARLES     MOCLDY    74  73  97 NW3       29.94F

$$
MOZ072>076-082>087-097>100-106>115-280800-
...SOUTH CENTRAL AND SOUTHEAST MISSOURI...

CITY           SKY/WX    TMP DP  RH WIND       PRES   REMARKS
CAPE GIRARDEAU MOCLDY    77  74  90 N5        29.94F
FARMINGTON     MOCLDY    73  73 100 S3        30.00F
POPLAR BLUFF   PTCLDY    78  76  93 CALM      29.93S
WEST PLAINS    CLEAR     79  72  79 SW6       30.00S

$$


USA.gov is the U.S. government's official web portal to all federal, state and local government web resources and services.